Back to catalog

CZ-6A DEB

AlivePO
NORAD 61841·DEBRIS·🇨🇳 China

Launched Aug 6, 2024 from Taiyuan Satellite Launch Center

Loading…

Next Passes (next 24 hours)

TLE

FreshSource: Space-Track

Epoch: Sep 13, 2026, 12:06 UTC

1 61841U 24140ADH 26256.50442941  .00004210  00000-0  17451-2 0  9998
2 61841  88.9730 262.3699 0062514 247.0378 112.4212 14.25367215107583

Track CZ-6A DEB in real time with AllMySat

Download on the App Store